Regional Weather Roundup
Issued by NWS Northern Indiana

Home | Current Version | Previous Version | Graphics & Text | Print | Product List | Glossary On
Versions: 1 2 3 4 5 6 7 8 9 10 11 12 13 14 15 16 17 18 19 20 21 22 23 24 25 26 27 28 29 30 31 32 33 34 35 36 37 38 39 40 41 42 43 44 45 46 47 48 49 50
000
ASUS43 KIWX 171610
RWRIWX

KIWX WEATHER ROUNDUP
NATIONAL WEATHER SERVICE NORTHERN INDIANA
1200 PM EDT WED SEP 17 2014

NOTE: "FAIR" INDICATES FEW OR NO CLOUDS BELOW 12,000 FEET WITH NO
SIGNIFICANT WEATHER AND/OR OBSTRUCTIONS TO VISIBILITY.

* THESE STATIONS ARE NOT UNDER NWS QUALITY CONTROL. THEY ALSO MAY NOT
  REPORT WEATHER SUCH AS PRECIPITATION OR FOG.

INZ001>027-171700-
NORTHERN INDIANA

CITY           SKY/WX    TMP DP  RH WIND       PRES   REMARKS
GARY*          MOSUNNY   66  45  45 MISG      30.05S
VALPARAISO     SUNNY     64  49  57 W5        30.05S
MICHIGAN CITY* MOSUNNY   63  41  45 CALM      30.05R
KNOX*          SUNNY     63  48  58 W6        30.03S
SOUTH BEND     SUNNY     64  46  52 VRB3      30.04F
ELKHART*       MOSUNNY   63  46  55 S5        30.05S
GOSHEN         PTSUNNY   63  47  55 S7        30.04F
LOGANSPORT*    MOSUNNY   63  45  51 S7        30.06S
ROCHESTER*     MOSUNNY   64  46  52 CALM      30.05S
WARSAW*        SUNNY     61  50  67 SW3       30.04F
ANGOLA*        MOSUNNY   63  46  55 SW8       30.04S
FORT WAYNE     PTSUNNY   61  54  77 S3        30.06F
HUNTINGTON*    PTSUNNY   60  56  88 SW3       30.04F
PERU/GRISSOM   SUNNY     62  50  65 VRB2      30.05S
MARION*        MOSUNNY   62  48  60 S6        30.06R

$$
INZ028>050-171700-
CENTRAL INDIANA

CITY           SKY/WX    TMP DP  RH WIND       PRES   REMARKS
LAFAYETTE      SUNNY     62  53  72 VRB3      30.05S
KOKOMO*        PTSUNNY   63  48  59 SW3       30.05S
MUNCIE*        PTSUNNY   62  49  62 N3        30.05F
INDIANAPOLIS   PTSUNNY   61  49  64 SE7       30.05S

$$
MIZ043>046-050>051-056>058-064>065-071>073-077>080-171700-
SOUTHWEST LOWER MICHIGAN

CITY           SKY/WX    TMP DP  RH WIND       PRES   REMARKS
BATTLE CREEK   SUNNY     61  42  49 CALM      30.04F
BENTON HARBOR  MOSUNNY   63  48  58 VRB3      30.03F
COLDWATER*     SUNNY     64  44  49 W3        30.04S
HILLSDALE*     SUNNY     62  40  45 CALM      30.04S
HOLLAND        CLOUDY    61  52  72 S5        30.03F
GRAND RAPIDS   MOSUNNY   64  50  60 SW10      30.03F
KALAMAZOO      MOSUNNY   62  45  53 VRB5      30.05S
STURGIS*       SUNNY     61  48  63 CALM      30.03F
THREE RIVERS*  FAIR      63  48  58 CALM      30.04F

$$
OHZ001>008-015>018-024>025-171700-
NORTHWEST OHIO

CITY           SKY/WX    TMP DP  RH WIND       PRES   REMARKS
WAUSEON*       FAIR      63  45  51 W8        30.04F
DEFIANCE       SUNNY     63  46  54 VRB5      30.05F
FINDLAY        SUNNY     64  47  53 W5        30.04F
TOLEDO EXPRESS SUNNY     62  46  55 VRB3      30.04F
TOLEDO METCALF SUNNY     62  46  55 W10       30.05F
LIMA           MOSUNNY   64  48  56 VRB3      30.05F

$$
&&


USA.gov is the U.S. government's official web portal to all federal, state and local government web resources and services.